Year,Month,Day,Hour,Minute,Value (Times are PST for temperature in C)
2011,04,21,03,02,4.40
2011,04,21,03,03,4.30
2011,04,21,03,04,4.20
2011,04,21,03,05,4.10
2011,04,21,03,06,1.30
2011,04,21,03,07,1.30
2011,04,21,03,08,1.30
2011,04,21,03,09,1.30
2011,04,21,03,10,1.30
2011,04,21,03,11,1.30
2011,04,21,03,12,1.30
2011,04,21,03,13,1.40
2011,04,21,03,14,1.40
2011,04,21,03,15,1.40
2011,04,21,03,16,1.50
2011,04,21,03,17,1.50
2011,04,21,03,18,1.60
2011,04,21,03,19,1.60
2011,04,21,03,20,1.70
2011,04,21,03,21,1.70
2011,04,21,03,22,1.80
2011,04,21,03,23,1.80
2011,04,21,03,24,1.80
2011,04,21,03,25,1.80
2011,04,21,03,26,1.80
2011,04,21,03,27,1.80
2011,04,21,03,28,1.80
2011,04,21,03,29,1.80
2011,04,21,03,30,1.80
2011,04,21,03,31,1.80
2011,04,21,03,32,1.80
2011,04,21,03,33,1.80
2011,04,21,03,34,1.80
2011,04,21,03,35,1.80
2011,04,21,03,36,1.80
2011,04,21,03,37,1.80
2011,04,21,03,38,1.80
2011,04,21,03,39,1.70
2011,04,21,03,40,1.70
2011,04,21,03,41,1.70
2011,04,21,03,42,1.70
2011,04,21,03,43,1.60
2011,04,21,03,44,1.60
2011,04,21,03,45,1.60
2011,04,21,03,46,1.50
2011,04,21,03,47,1.50
2011,04,21,03,48,1.50
2011,04,21,03,49,1.40
2011,04,21,03,50,1.40
2011,04,21,03,51,1.30
2011,04,21,03,52,1.30
2011,04,21,03,53,1.30
2011,04,21,03,54,1.30
2011,04,21,03,55,1.30
2011,04,21,03,56,1.30
2011,04,21,03,57,1.30
2011,04,21,03,58,1.30
2011,04,21,03,59,1.30
2011,04,21,04,00,1.30
2011,04,21,04,01,1.20
2011,04,21,04,02,1.20
2011,04,21,04,03,1.20
2011,04,21,04,04,1.20
2011,04,21,04,05,1.20
2011,04,21,04,06,1.20
2011,04,21,04,07,1.20
2011,04,21,04,08,1.20
2011,04,21,04,09,1.20
2011,04,21,04,10,1.10
2011,04,21,04,11,1.10
2011,04,21,04,12,1.10
2011,04,21,04,13,1.10
2011,04,21,04,14,1.00
2011,04,21,04,15,1.00
2011,04,21,04,16,1.00
2011,04,21,04,17,1.00
2011,04,21,04,18,1.00
2011,04,21,04,19,1.00
2011,04,21,04,20,1.00
2011,04,21,04,21,1.00
2011,04,21,04,22,1.00
2011,04,21,04,23,1.00
2011,04,21,04,24,0.90
2011,04,21,04,25,0.90
2011,04,21,04,26,0.90
2011,04,21,04,27,0.90
2011,04,21,04,28,0.90
2011,04,21,04,29,0.90
2011,04,21,04,30,0.80
2011,04,21,04,31,0.80
2011,04,21,04,32,0.80
2011,04,21,04,33,0.70
2011,04,21,04,34,0.70
2011,04,21,04,35,0.70
2011,04,21,04,36,0.60
2011,04,21,04,37,0.60
2011,04,21,04,38,0.60
2011,04,21,04,39,0.60
2011,04,21,04,40,0.60
2011,04,21,04,41,0.60
2011,04,21,04,42,0.70
2011,04,21,04,43,0.70
2011,04,21,04,44,0.60
2011,04,21,04,45,0.60
2011,04,21,04,46,0.60
2011,04,21,04,47,0.60
2011,04,21,04,48,0.60
2011,04,21,04,49,0.60
2011,04,21,04,50,0.60
2011,04,21,04,51,0.80
2011,04,21,04,52,0.90
2011,04,21,04,53,0.90
2011,04,21,04,54,1.00
2011,04,21,04,55,1.00
2011,04,21,04,56,1.00
2011,04,21,04,57,1.00
2011,04,21,04,58,0.90
2011,04,21,04,59,0.90
2011,04,21,05,00,0.90
2011,04,21,05,01,0.90
2011,04,21,05,02,0.80
2011,04,21,05,03,0.80
2011,04,21,05,04,0.80
2011,04,21,05,05,0.80
2011,04,21,05,06,0.70
2011,04,21,05,07,0.70
2011,04,21,05,08,0.60
2011,04,21,05,09,0.60
2011,04,21,05,10,0.60
2011,04,21,05,11,0.60
2011,04,21,05,12,0.60
2011,04,21,05,13,0.60
2011,04,21,05,14,0.60
2011,04,21,05,15,0.60
2011,04,21,05,16,0.50
2011,04,21,05,17,0.50
2011,04,21,05,18,0.50
2011,04,21,05,19,0.40
2011,04,21,05,20,0.40
2011,04,21,05,21,0.40
2011,04,21,05,22,0.40
2011,04,21,05,23,0.40
2011,04,21,05,24,0.40
2011,04,21,05,25,0.30
2011,04,21,05,26,0.30
2011,04,21,05,27,0.30
2011,04,21,05,28,0.30
2011,04,21,05,29,0.30
2011,04,21,05,30,0.20
2011,04,21,05,31,0.30
2011,04,21,05,32,0.30
2011,04,21,05,33,0.30
2011,04,21,05,34,0.30
2011,04,21,05,35,0.30
2011,04,21,05,36,0.40
2011,04,21,05,37,0.40
2011,04,21,05,38,0.40
2011,04,21,05,39,0.40
2011,04,21,05,40,0.40
2011,04,21,05,41,0.40
2011,04,21,05,42,0.40
2011,04,21,05,43,0.40
2011,04,21,05,44,0.40
2011,04,21,05,45,0.40
2011,04,21,05,46,0.40
2011,04,21,05,47,0.40
2011,04,21,05,48,0.30
2011,04,21,05,49,0.30
2011,04,21,05,50,0.30
2011,04,21,05,51,0.30
2011,04,21,05,52,0.30
2011,04,21,05,53,0.30
2011,04,21,05,54,0.30
2011,04,21,05,55,0.30
2011,04,21,05,56,0.30
2011,04,21,05,57,0.30
2011,04,21,05,58,0.30
2011,04,21,05,59,0.30
2011,04,21,06,00,0.30
2011,04,21,06,01,0.30
2011,04,21,06,02,0.40
2011,04,21,06,03,0.40
2011,04,21,06,04,0.50
2011,04,21,06,05,0.50
2011,04,21,06,06,0.60
2011,04,21,06,07,0.70
2011,04,21,06,08,0.70
2011,04,21,06,09,0.80
2011,04,21,06,10,0.80
2011,04,21,06,11,0.80
2011,04,21,06,12,0.90
2011,04,21,06,13,0.90
2011,04,21,06,14,1.00
2011,04,21,06,15,1.00
2011,04,21,06,16,1.10
2011,04,21,06,17,1.20
2011,04,21,06,18,1.30
2011,04,21,06,19,1.30
2011,04,21,06,20,1.30
2011,04,21,06,21,1.30
2011,04,21,06,22,1.30
2011,04,21,06,23,1.40
2011,04,21,06,24,1.40
2011,04,21,06,25,1.40
2011,04,21,06,26,1.40
2011,04,21,06,27,1.40
2011,04,21,06,28,1.40
2011,04,21,06,29,1.40
2011,04,21,06,30,1.40
2011,04,21,06,31,1.40
2011,04,21,06,32,1.40
2011,04,21,06,33,1.40
2011,04,21,06,34,1.40
2011,04,21,06,35,1.50
2011,04,21,06,36,1.50
2011,04,21,06,37,1.50
2011,04,21,06,38,1.50
2011,04,21,06,39,1.50
2011,04,21,06,40,1.60
2011,04,21,06,41,1.60
2011,04,21,06,42,1.60
2011,04,21,06,43,1.60
2011,04,21,06,44,1.60
2011,04,21,06,45,1.70
2011,04,21,06,46,1.70
2011,04,21,06,47,1.70
2011,04,21,06,48,1.70
2011,04,21,06,49,1.80
2011,04,21,06,50,1.80
2011,04,21,06,51,1.80
2011,04,21,06,52,1.80
2011,04,21,06,53,1.80
2011,04,21,06,54,1.80
2011,04,21,06,55,1.80
2011,04,21,06,56,1.80
2011,04,21,06,57,1.80
2011,04,21,06,58,1.80
2011,04,21,06,59,1.80
2011,04,21,07,00,1.80
2011,04,21,07,01,1.80
2011,04,21,07,02,1.90
2011,04,21,07,03,1.90
2011,04,21,07,04,1.90
2011,04,21,07,05,1.90
2011,04,21,07,06,2.00
2011,04,21,07,07,2.00
2011,04,21,07,08,2.00
2011,04,21,07,09,2.10
2011,04,21,07,10,2.10
2011,04,21,07,11,2.20
2011,04,21,07,12,2.20
2011,04,21,07,13,2.20
2011,04,21,07,14,2.30
2011,04,21,07,15,2.30
2011,04,21,07,16,2.30
2011,04,21,07,17,2.30
2011,04,21,07,18,2.30
2011,04,21,07,19,2.30
2011,04,21,07,20,2.30
2011,04,21,07,21,2.30
2011,04,21,07,22,2.30
2011,04,21,07,23,2.40
2011,04,21,07,24,2.40
2011,04,21,07,25,2.40
2011,04,21,07,26,2.50
2011,04,21,07,27,2.50
2011,04,21,07,28,2.50
2011,04,21,07,29,2.60
2011,04,21,07,30,2.60
2011,04,21,07,31,2.60
2011,04,21,07,32,2.60
2011,04,21,07,33,2.60
2011,04,21,07,34,2.70
2011,04,21,07,35,2.70
2011,04,21,07,36,2.70
2011,04,21,07,37,2.80
2011,04,21,07,38,2.80
2011,04,21,07,39,2.80
2011,04,21,07,40,2.90
2011,04,21,07,41,3.00
2011,04,21,07,42,3.10
2011,04,21,07,43,3.10
2011,04,21,07,44,3.20
2011,04,21,07,45,3.20
2011,04,21,07,46,3.30
2011,04,21,07,47,3.30
2011,04,21,07,48,3.30
2011,04,21,07,49,3.30
2011,04,21,07,50,3.30
2011,04,21,07,51,3.30
2011,04,21,07,52,3.30
2011,04,21,07,53,3.30
2011,04,21,07,54,3.30
2011,04,21,07,55,3.30
2011,04,21,07,56,3.30
2011,04,21,07,57,3.30
2011,04,21,07,58,3.40
2011,04,21,07,59,3.40
2011,04,21,08,00,3.40
2011,04,21,08,01,3.40
2011,04,21,08,02,3.40
2011,04,21,08,03,3.40
2011,04,21,08,04,3.40
2011,04,21,08,05,3.40
2011,04,21,08,06,3.40
2011,04,21,08,07,3.40
2011,04,21,08,08,3.40
2011,04,21,08,09,3.40
2011,04,21,08,10,3.40
2011,04,21,08,11,3.40
2011,04,21,08,12,3.40
2011,04,21,08,13,3.30
2011,04,21,08,14,3.30
2011,04,21,08,15,3.30
2011,04,21,08,16,3.30
2011,04,21,08,17,3.30
2011,04,21,08,18,3.40
2011,04,21,08,19,3.40
2011,04,21,08,20,3.50
2011,04,21,08,21,3.60
2011,04,21,08,22,3.70
2011,04,21,08,23,3.80
2011,04,21,08,24,3.90
2011,04,21,08,25,3.90
2011,04,21,08,26,4.00
2011,04,21,08,27,4.10
2011,04,21,08,28,4.20
2011,04,21,08,29,4.20
2011,04,21,08,30,4.30
2011,04,21,08,31,4.30
2011,04,21,08,32,4.30
2011,04,21,08,33,4.30
2011,04,21,08,34,4.30
2011,04,21,08,35,4.30
2011,04,21,08,36,4.40
2011,04,21,08,37,4.40
2011,04,21,08,38,4.50
2011,04,21,08,39,4.50
2011,04,21,08,40,4.60
2011,04,21,08,41,4.60
2011,04,21,08,42,4.60
2011,04,21,08,43,4.60
2011,04,21,08,44,4.50
2011,04,21,08,45,4.50
2011,04,21,08,46,4.40
2011,04,21,08,47,4.50
2011,04,21,08,48,4.50
2011,04,21,08,49,4.50
2011,04,21,08,50,4.60
2011,04,21,08,51,4.70
2011,04,21,08,52,4.80
2011,04,21,08,53,4.80
2011,04,21,08,54,4.80
2011,04,21,08,55,4.90
2011,04,21,08,56,4.90
2011,04,21,08,57,5.00
2011,04,21,08,58,5.10
2011,04,21,08,59,5.10
2011,04,21,09,00,5.10
2011,04,21,09,01,5.10
2011,04,21,09,02,5.10
2011,04,21,09,03,5.10
2011,04,21,09,04,5.20
2011,04,21,09,05,5.30
2011,04,21,09,06,5.40
2011,04,21,09,07,5.40
2011,04,21,09,08,5.40
2011,04,21,09,09,5.30
2011,04,21,09,10,5.30
2011,04,21,09,11,5.30
2011,04,21,09,12,5.40
2011,04,21,09,13,5.50
2011,04,21,09,14,5.60
2011,04,21,09,15,5.70
2011,04,21,09,16,5.70
2011,04,21,09,17,5.80
2011,04,21,09,18,6.00
2011,04,21,09,19,6.10
2011,04,21,09,20,6.10
2011,04,21,09,21,6.30
2011,04,21,09,22,6.40
2011,04,21,09,23,6.50
2011,04,21,09,24,6.50
2011,04,21,09,25,6.60
2011,04,21,09,26,6.70
2011,04,21,09,27,6.80
2011,04,21,09,28,6.90
2011,04,21,09,29,7.00
2011,04,21,09,30,7.00
2011,04,21,09,31,7.10
2011,04,21,09,32,7.20
2011,04,21,09,33,7.20
2011,04,21,09,34,7.20
2011,04,21,09,35,7.30
2011,04,21,09,36,7.40
2011,04,21,09,37,7.50
2011,04,21,09,38,7.50
2011,04,21,09,39,7.60
2011,04,21,09,40,7.60
2011,04,21,09,41,7.60
2011,04,21,09,42,7.70
2011,04,21,09,43,7.80
2011,04,21,09,44,7.90
2011,04,21,09,45,8.10
2011,04,21,09,46,8.10
2011,04,21,09,47,8.20
2011,04,21,09,48,8.20
2011,04,21,09,49,8.20
2011,04,21,09,50,8.20
2011,04,21,09,51,8.20
2011,04,21,09,52,8.20
2011,04,21,09,53,8.20
2011,04,21,09,54,8.30
2011,04,21,09,55,8.40
2011,04,21,09,56,8.40
2011,04,21,09,57,8.50
2011,04,21,09,58,8.60
2011,04,21,09,59,8.80
2011,04,21,10,00,8.80
2011,04,21,10,01,8.90
2011,04,21,10,02,8.90
2011,04,21,10,03,8.90
2011,04,21,10,04,8.90
2011,04,21,10,05,8.90
2011,04,21,10,06,8.90
2011,04,21,10,07,8.90
2011,04,21,10,08,8.90
2011,04,21,10,09,8.90
2011,04,21,10,10,8.80
2011,04,21,10,11,8.80
2011,04,21,10,12,8.90
2011,04,21,10,13,9.00
2011,04,21,10,14,9.20
2011,04,21,10,15,9.30
2011,04,21,10,16,9.40
2011,04,21,10,17,9.50
2011,04,21,10,18,9.60
2011,04,21,10,19,9.70
2011,04,21,10,20,9.80
2011,04,21,10,21,9.80
2011,04,21,10,22,9.90
2011,04,21,10,23,9.90
2011,04,21,10,24,9.80
2011,04,21,10,25,9.80
2011,04,21,10,26,9.80
2011,04,21,10,27,9.80
2011,04,21,10,28,9.70
2011,04,21,10,29,9.40
2011,04,21,10,30,9.20
2011,04,21,10,31,8.90
2011,04,21,10,32,8.80
2011,04,21,10,33,8.80
2011,04,21,10,34,8.80
2011,04,21,10,35,8.80
2011,04,21,10,36,8.90
2011,04,21,10,37,9.00
2011,04,21,10,38,9.10
2011,04,21,10,39,9.20
2011,04,21,10,40,9.30
2011,04,21,10,41,9.40
2011,04,21,10,42,9.50
2011,04,21,10,43,9.70
2011,04,21,10,44,9.80
2011,04,21,10,45,9.80
2011,04,21,10,46,9.80
2011,04,21,10,47,9.80
2011,04,21,10,48,9.70
2011,04,21,10,49,9.60
2011,04,21,10,50,9.60
2011,04,21,10,51,9.60
2011,04,21,10,52,9.60
2011,04,21,10,53,9.60
2011,04,21,10,54,9.60
2011,04,21,10,55,9.60
2011,04,21,10,56,9.50
2011,04,21,10,57,9.50
2011,04,21,10,58,9.40
2011,04,21,10,59,9.30
2011,04,21,11,00,9.30
2011,04,21,11,01,9.30
2011,04,21,11,02,9.30
2011,04,21,11,03,9.20
2011,04,21,11,04,9.00
2011,04,21,11,05,8.90
2011,04,21,11,06,8.80
2011,04,21,11,07,8.80
2011,04,21,11,08,8.70
2011,04,21,11,09,8.70
2011,04,21,11,10,8.70
2011,04,21,11,11,8.70
2011,04,21,11,12,8.70
2011,04,21,11,13,8.90
2011,04,21,11,14,9.00
2011,04,21,11,15,9.10
2011,04,21,11,16,9.30
2011,04,21,11,17,9.40
2011,04,21,11,18,9.50
2011,04,21,11,19,9.60
2011,04,21,11,20,9.80
2011,04,21,11,21,9.90
2011,04,21,11,22,10.00
2011,04,21,11,23,10.10
2011,04,21,11,24,10.00
2011,04,21,11,25,9.80
2011,04,21,11,26,9.70
2011,04,21,11,27,9.70
2011,04,21,11,28,9.70
2011,04,21,11,29,9.70
2011,04,21,11,30,9.80
2011,04,21,11,31,9.90
2011,04,21,11,32,9.90
2011,04,21,11,33,9.80
2011,04,21,11,34,9.70
2011,04,21,11,35,9.70
2011,04,21,11,36,9.60
2011,04,21,11,37,9.50
2011,04,21,11,38,9.50
2011,04,21,11,39,9.50
2011,04,21,11,40,9.40
2011,04,21,11,41,9.40
2011,04,21,11,42,9.30
2011,04,21,11,43,9.30
2011,04,21,11,44,9.30
2011,04,21,11,45,9.30
2011,04,21,11,46,9.30
2011,04,21,11,47,9.40
2011,04,21,11,48,9.60
2011,04,21,11,49,9.80
2011,04,21,11,50,9.90
2011,04,21,11,51,9.90
2011,04,21,11,52,10.00
2011,04,21,11,53,10.10
2011,04,21,11,54,10.10
2011,04,21,11,55,10.10
2011,04,21,11,56,10.20
2011,04,21,11,57,10.30
2011,04,21,11,58,10.20
2011,04,21,11,59,10.20
2011,04,21,12,00,10.10
2011,04,21,12,01,10.10
2011,04,21,12,02,10.20
2011,04,21,12,03,10.30
2011,04,21,12,04,10.30
2011,04,21,12,05,10.30
2011,04,21,12,06,10.20
2011,04,21,12,07,10.10
2011,04,21,12,08,10.10
2011,04,21,12,09,10.00
2011,04,21,12,10,10.10
2011,04,21,12,11,10.00
2011,04,21,12,12,10.00
2011,04,21,12,13,10.10
2011,04,21,12,14,10.20
2011,04,21,12,15,10.30
2011,04,21,12,16,10.20
2011,04,21,12,17,10.20
2011,04,21,12,18,10.10
2011,04,21,12,19,10.00
2011,04,21,12,20,10.00
2011,04,21,12,21,10.00
2011,04,21,12,22,10.10
2011,04,21,12,23,10.20
2011,04,21,12,24,10.40
2011,04,21,12,25,10.50
2011,04,21,12,26,10.60
2011,04,21,12,27,10.60
2011,04,21,12,28,10.50
2011,04,21,12,29,10.40
2011,04,21,12,30,10.40
2011,04,21,12,31,10.40
2011,04,21,12,32,10.40
2011,04,21,12,33,10.50
2011,04,21,12,34,10.50
2011,04,21,12,35,10.50
2011,04,21,12,36,10.50
2011,04,21,12,37,10.30
2011,04,21,12,38,10.20
2011,04,21,12,39,10.20
2011,04,21,12,40,10.10
2011,04,21,12,41,10.10
2011,04,21,12,42,10.10
2011,04,21,12,43,10.10
2011,04,21,12,44,10.00
2011,04,21,12,45,9.90
2011,04,21,12,46,9.80
2011,04,21,12,47,9.90
2011,04,21,12,48,9.90
2011,04,21,12,49,9.90
2011,04,21,12,50,9.90
2011,04,21,12,51,9.90
2011,04,21,12,52,9.90
2011,04,21,12,53,10.00
2011,04,21,12,54,10.00
2011,04,21,12,55,10.10
2011,04,21,12,56,10.10
2011,04,21,12,57,10.10
2011,04,21,12,58,10.20
2011,04,21,12,59,10.30
2011,04,21,13,00,10.30
2011,04,21,13,01,10.30
2011,04,21,13,02,10.30
2011,04,21,13,03,10.40
2011,04,21,13,04,10.50
2011,04,21,13,05,10.60
2011,04,21,13,06,10.60
2011,04,21,13,07,10.40
2011,04,21,13,08,10.20
2011,04,21,13,09,10.20
2011,04,21,13,10,10.30
2011,04,21,13,11,10.30
2011,04,21,13,12,10.30
2011,04,21,13,13,10.30
2011,04,21,13,14,10.30
2011,04,21,13,15,10.30
2011,04,21,13,16,10.30
2011,04,21,13,17,10.30
2011,04,21,13,18,10.30
2011,04,21,13,19,10.40
2011,04,21,13,20,10.30
2011,04,21,13,21,10.30
2011,04,21,13,22,10.30
2011,04,21,13,23,10.30
2011,04,21,13,24,10.40
2011,04,21,13,25,10.40
2011,04,21,13,26,10.50
2011,04,21,13,27,10.50
2011,04,21,13,28,10.40
2011,04,21,13,29,10.40
2011,04,21,13,30,10.40
2011,04,21,13,31,10.40
2011,04,21,13,32,10.50
2011,04,21,13,33,10.50
2011,04,21,13,34,10.60
2011,04,21,13,35,10.80
2011,04,21,13,36,10.90
2011,04,21,13,37,10.90
2011,04,21,13,38,10.90
2011,04,21,13,39,10.80
2011,04,21,13,40,10.80
2011,04,21,13,41,10.80
2011,04,21,13,42,10.80
2011,04,21,13,43,10.80
2011,04,21,13,44,10.70
2011,04,21,13,45,10.60
2011,04,21,13,46,10.50
2011,04,21,13,47,10.40
2011,04,21,13,48,10.40
2011,04,21,13,49,10.30
2011,04,21,13,50,10.30
2011,04,21,13,51,10.30
2011,04,21,13,52,10.30
2011,04,21,13,53,10.30
2011,04,21,13,54,10.30
2011,04,21,13,55,10.40
2011,04,21,13,56,10.50
2011,04,21,13,57,10.50
2011,04,21,13,58,10.50
2011,04,21,13,59,10.60
2011,04,21,14,00,10.80
2011,04,21,14,01,10.80
2011,04,21,14,02,10.90
2011,04,21,14,03,11.00
2011,04,21,14,04,11.10
2011,04,21,14,05,11.00
2011,04,21,14,06,11.00
2011,04,21,14,07,11.10
2011,04,21,14,08,11.20
2011,04,21,14,09,11.30
2011,04,21,14,10,11.40
2011,04,21,14,11,11.50
2011,04,21,14,12,11.60
2011,04,21,14,13,11.50
2011,04,21,14,14,11.50
2011,04,21,14,15,11.40
2011,04,21,14,16,11.30
2011,04,21,14,17,11.30
2011,04,21,14,18,11.20
2011,04,21,14,19,11.10
2011,04,21,14,20,11.00
2011,04,21,14,21,10.90
2011,04,21,14,22,10.90
2011,04,21,14,23,10.80
2011,04,21,14,24,10.70
2011,04,21,14,25,10.60
2011,04,21,14,26,10.60
2011,04,21,14,27,10.60
2011,04,21,14,28,10.60
2011,04,21,14,29,10.60
2011,04,21,14,30,10.60
2011,04,21,14,31,10.60
2011,04,21,14,32,10.50
2011,04,21,14,33,10.50
2011,04,21,14,34,10.50
2011,04,21,14,35,10.60
2011,04,21,14,36,10.60
2011,04,21,14,37,10.60
2011,04,21,14,38,10.60
2011,04,21,14,39,10.70
2011,04,21,14,40,10.80
2011,04,21,14,41,10.80
2011,04,21,14,42,10.80
2011,04,21,14,43,10.90
2011,04,21,14,44,10.80
2011,04,21,14,45,10.80
2011,04,21,14,46,10.80
2011,04,21,14,47,10.80
2011,04,21,14,48,10.80
2011,04,21,14,49,10.90
2011,04,21,14,50,11.00
2011,04,21,14,51,11.10
2011,04,21,14,52,11.10
2011,04,21,14,53,11.10
2011,04,21,14,54,11.10
2011,04,21,14,55,11.10
2011,04,21,14,56,11.10
2011,04,21,14,57,11.20
2011,04,21,14,58,11.20
2011,04,21,14,59,11.20
2011,04,21,15,00,11.20
2011,04,21,15,01,11.30
2011,04,21,15,02,11.30
2011,04,21,15,03,11.30
2011,04,21,15,04,11.30
2011,04,21,15,05,11.20
2011,04,21,15,06,11.30
2011,04,21,15,07,11.30
2011,04,21,15,08,11.30
2011,04,21,15,09,11.20
2011,04,21,15,10,11.10
2011,04,21,15,11,11.00
2011,04,21,15,12,10.90
2011,04,21,15,13,10.80
2011,04,21,15,14,10.60
2011,04,21,15,15,10.50
2011,04,21,15,16,10.50
2011,04,21,15,17,10.40
2011,04,21,15,18,10.30
2011,04,21,15,19,10.30
2011,04,21,15,20,10.30
2011,04,21,15,21,10.20
2011,04,21,15,22,10.20
2011,04,21,15,23,10.30
2011,04,21,15,24,10.30
2011,04,21,15,25,10.30
2011,04,21,15,26,10.30
2011,04,21,15,27,10.30
2011,04,21,15,28,10.20
2011,04,21,15,29,10.20
2011,04,21,15,30,10.20
2011,04,21,15,31,10.20
2011,04,21,15,32,10.20
2011,04,21,15,33,10.20
2011,04,21,15,34,10.20
2011,04,21,15,35,10.20
2011,04,21,15,36,10.20
2011,04,21,15,37,10.30
2011,04,21,15,38,10.30
2011,04,21,15,39,10.30
2011,04,21,15,40,10.30
2011,04,21,15,41,10.30
2011,04,21,15,42,10.30
2011,04,21,15,43,10.30
2011,04,21,15,44,10.20
2011,04,21,15,45,10.20
2011,04,21,15,46,10.20
2011,04,21,15,47,10.10
2011,04,21,15,48,10.10
2011,04,21,15,49,10.00
2011,04,21,15,50,10.00
2011,04,21,15,51,10.00
2011,04,21,15,52,10.00
2011,04,21,15,53,10.00
2011,04,21,15,54,10.00
2011,04,21,15,55,10.00
2011,04,21,15,56,10.10
2011,04,21,15,57,10.10
2011,04,21,15,58,10.10
2011,04,21,15,59,10.20
2011,04,21,16,00,10.20
2011,04,21,16,01,10.30
2011,04,21,16,02,10.30
2011,04,21,16,03,10.30
2011,04,21,16,04,10.40
2011,04,21,16,05,10.40
2011,04,21,16,06,10.50
2011,04,21,16,07,10.60
2011,04,21,16,08,10.60
2011,04,21,16,09,10.50
2011,04,21,16,10,10.50
2011,04,21,16,11,10.40
2011,04,21,16,12,10.30
2011,04,21,16,13,10.30
2011,04,21,16,14,10.20
2011,04,21,16,15,10.10
2011,04,21,16,16,9.90
2011,04,21,16,17,9.80
2011,04,21,16,18,9.70
2011,04,21,16,19,9.70
2011,04,21,16,20,9.70
2011,04,21,16,21,9.70
2011,04,21,16,22,9.70
2011,04,21,16,23,9.60
2011,04,21,16,24,9.60
2011,04,21,16,25,9.60
2011,04,21,16,26,9.60
2011,04,21,16,27,9.60
2011,04,21,16,28,9.60
2011,04,21,16,29,9.60
2011,04,21,16,30,9.60
2011,04,21,16,31,9.60
2011,04,21,16,32,9.70
2011,04,21,16,33,9.70
2011,04,21,16,34,9.80
2011,04,21,16,35,9.90
2011,04,21,16,36,9.90
2011,04,21,16,37,10.00
2011,04,21,16,38,10.00
2011,04,21,16,39,10.00
2011,04,21,16,40,10.10
2011,04,21,16,41,10.10
2011,04,21,16,42,10.00
2011,04,21,16,43,10.00
2011,04,21,16,44,9.90
2011,04,21,16,45,9.90
2011,04,21,16,46,10.00
2011,04,21,16,47,10.00
2011,04,21,16,48,10.10
2011,04,21,16,49,10.10
2011,04,21,16,50,10.10
2011,04,21,16,51,10.00
2011,04,21,16,52,10.00
2011,04,21,16,53,10.00
2011,04,21,16,54,10.10
2011,04,21,16,55,10.10
2011,04,21,16,56,10.20
2011,04,21,16,57,10.20
2011,04,21,16,58,10.20
2011,04,21,16,59,10.20
2011,04,21,17,00,10.20
2011,04,21,17,01,10.20
2011,04,21,17,02,10.10
2011,04,21,17,03,10.10
2011,04,21,17,04,10.00
2011,04,21,17,05,10.00
2011,04,21,17,06,9.90
2011,04,21,17,07,9.90
2011,04,21,17,08,9.90
2011,04,21,17,09,9.90
2011,04,21,17,10,9.90
2011,04,21,17,11,9.90
2011,04,21,17,12,10.00
2011,04,21,17,13,10.00
2011,04,21,17,14,10.00
2011,04,21,17,15,10.10
2011,04,21,17,16,10.10
2011,04,21,17,17,10.10
2011,04,21,17,18,10.00
2011,04,21,17,19,10.00
2011,04,21,17,20,9.90
2011,04,21,17,21,9.90
2011,04,21,17,22,9.90
2011,04,21,17,23,10.00
2011,04,21,17,24,10.10
2011,04,21,17,25,10.10
2011,04,21,17,26,10.20
2011,04,21,17,27,10.30
2011,04,21,17,28,10.30
2011,04,21,17,29,10.40
2011,04,21,17,30,10.50
2011,04,21,17,31,10.60
2011,04,21,17,32,10.60
2011,04,21,17,33,10.70
2011,04,21,17,34,10.60
2011,04,21,17,35,10.60
2011,04,21,17,36,10.50
2011,04,21,17,37,10.40
2011,04,21,17,38,10.40
2011,04,21,17,39,10.40
2011,04,21,17,40,10.40
2011,04,21,17,41,10.30
2011,04,21,17,42,10.40
2011,04,21,17,43,10.40
2011,04,21,17,44,10.40
2011,04,21,17,45,10.50
2011,04,21,17,46,10.50
2011,04,21,17,47,10.60
2011,04,21,17,48,10.70
2011,04,21,17,49,10.70
2011,04,21,17,50,10.70
2011,04,21,17,51,10.70
2011,04,21,17,52,10.70
2011,04,21,17,53,10.70
2011,04,21,17,54,10.70
2011,04,21,17,55,10.70
2011,04,21,17,56,10.70
2011,04,21,17,57,10.60
2011,04,21,17,58,10.60
2011,04,21,17,59,10.60
2011,04,21,18,00,10.50
2011,04,21,18,01,10.40
2011,04,21,18,02,10.40
2011,04,21,18,03,10.30
2011,04,21,18,04,10.20
2011,04,21,18,05,10.20
2011,04,21,18,06,10.20
2011,04,21,18,07,10.20
2011,04,21,18,08,10.20
2011,04,21,18,09,10.20
2011,04,21,18,10,10.20
2011,04,21,18,11,10.20
2011,04,21,18,12,10.20
2011,04,21,18,13,10.20
2011,04,21,18,14,10.20
2011,04,21,18,15,10.20
2011,04,21,18,16,10.20
2011,04,21,18,17,10.20
2011,04,21,18,18,10.20
2011,04,21,18,19,10.20
2011,04,21,18,20,10.10
2011,04,21,18,21,10.10
2011,04,21,18,22,10.10
2011,04,21,18,23,10.00
2011,04,21,18,24,10.00
2011,04,21,18,25,10.00
2011,04,21,18,26,9.90
2011,04,21,18,27,9.90
2011,04,21,18,28,9.80
2011,04,21,18,29,9.80
2011,04,21,18,30,9.80
2011,04,21,18,31,9.80
2011,04,21,18,32,9.80
2011,04,21,18,33,9.70
2011,04,21,18,34,9.70
2011,04,21,18,35,9.70
2011,04,21,18,36,9.60
2011,04,21,18,37,9.50
2011,04,21,18,38,9.40
2011,04,21,18,39,9.30
2011,04,21,18,40,9.10
2011,04,21,18,41,9.00
2011,04,21,18,42,9.00
2011,04,21,18,43,8.90
2011,04,21,18,44,8.80
2011,04,21,18,45,8.70
2011,04,21,18,46,8.60
2011,04,21,18,47,8.50
2011,04,21,18,48,8.50
2011,04,21,18,49,8.40
2011,04,21,18,50,8.40
2011,04,21,18,51,8.40
2011,04,21,18,52,8.40
2011,04,21,18,53,8.40
2011,04,21,18,54,8.40
2011,04,21,18,55,8.50
2011,04,21,18,56,8.60
2011,04,21,18,57,8.60
2011,04,21,18,58,8.70
2011,04,21,18,59,8.70
2011,04,21,19,00,8.80
2011,04,21,19,01,8.80
2011,04,21,19,02,8.90
2011,04,21,19,03,8.90
2011,04,21,19,04,9.00
2011,04,21,19,05,9.00
2011,04,21,19,06,9.10
2011,04,21,19,07,9.10
2011,04,21,19,08,9.10
2011,04,21,19,09,9.10
2011,04,21,19,10,9.10
2011,04,21,19,11,9.10
2011,04,21,19,12,9.10
2011,04,21,19,13,9.10
2011,04,21,19,14,9.00
2011,04,21,19,15,9.00
2011,04,21,19,16,8.90
2011,04,21,19,17,8.80
2011,04,21,19,18,8.80
2011,04,21,19,19,8.80
2011,04,21,19,20,8.70
2011,04,21,19,21,8.70
2011,04,21,19,22,8.60
2011,04,21,19,23,8.60
2011,04,21,19,24,8.60
2011,04,21,19,25,8.60
2011,04,21,19,26,8.60
2011,04,21,19,27,8.60
2011,04,21,19,28,8.60
2011,04,21,19,29,8.60
2011,04,21,19,30,8.60
2011,04,21,19,31,8.50
2011,04,21,19,32,8.50
2011,04,21,19,33,8.50
2011,04,21,19,34,8.40
2011,04,21,19,35,8.40
2011,04,21,19,36,8.30
2011,04,21,19,37,8.30
2011,04,21,19,38,8.30
2011,04,21,19,39,8.30
2011,04,21,19,40,8.20
2011,04,21,19,41,8.20
2011,04,21,19,42,8.20
2011,04,21,19,43,8.20
2011,04,21,19,44,8.20
2011,04,21,19,45,8.10
2011,04,21,19,46,8.10
2011,04,21,19,47,8.10
2011,04,21,19,48,8.10
2011,04,21,19,49,8.00
2011,04,21,19,50,8.00
2011,04,21,19,51,8.00
2011,04,21,19,52,7.90
2011,04,21,19,53,7.90
2011,04,21,19,54,7.90
2011,04,21,19,55,7.90
2011,04,21,19,56,7.80
2011,04,21,19,57,7.80
2011,04,21,19,58,7.80
2011,04,21,19,59,7.80
2011,04,21,20,00,7.80
2011,04,21,20,01,7.80
2011,04,21,20,02,7.70
2011,04,21,20,03,7.70
2011,04,21,20,04,7.70
2011,04,21,20,05,7.70
2011,04,21,20,06,7.70
2011,04,21,20,07,7.60
2011,04,21,20,08,7.60
2011,04,21,20,09,7.60
2011,04,21,20,10,7.60
2011,04,21,20,11,7.60
2011,04,21,20,12,7.60
2011,04,21,20,13,7.50
2011,04,21,20,14,7.50
2011,04,21,20,15,7.50
2011,04,21,20,16,7.50
2011,04,21,20,17,7.40
2011,04,21,20,18,7.40
2011,04,21,20,19,7.40
2011,04,21,20,20,7.40
2011,04,21,20,21,7.30
2011,04,21,20,22,7.30
2011,04,21,20,23,7.30
2011,04,21,20,24,7.30
2011,04,21,20,25,7.30
2011,04,21,20,26,7.30
2011,04,21,20,27,7.30
2011,04,21,20,28,7.20
2011,04,21,20,29,7.20
2011,04,21,20,30,7.20
2011,04,21,20,31,7.20
2011,04,21,20,32,7.30
2011,04,21,20,33,7.20
2011,04,21,20,34,7.20
2011,04,21,20,35,7.20
2011,04,21,20,36,7.20
2011,04,21,20,37,7.20
2011,04,21,20,38,7.20
2011,04,21,20,39,7.20
2011,04,21,20,40,7.20
2011,04,21,20,41,7.20
2011,04,21,20,42,7.20
2011,04,21,20,43,7.10
2011,04,21,20,44,7.10
2011,04,21,20,45,7.10
2011,04,21,20,46,7.10
2011,04,21,20,47,7.10
2011,04,21,20,48,7.10
2011,04,21,20,49,7.10
2011,04,21,20,50,7.00
2011,04,21,20,51,7.00
2011,04,21,20,52,7.00